Regional Weather Roundup
Issued by NWS Sioux Falls, SD

Home | Current Version | Previous Version | Graphics & Text | Print | Product List | Glossary On
Versions: 1 2 3 4 5 6 7 8 9 10 11 12 13 14 15 16 17 18 19 20 21 22 23 24 25 26 27 28 29 30 31 32 33 34 35 36 37 38 39 40 41 42 43 44 45 46 47 48 49 50
000
ASUS43 KFSD 050410
RWRFSD

WEATHER ROUNDUP FOR SE SOUTH DAKOTA/SW MINNESOTA/NW IOWA
NATIONAL WEATHER SERVICE SIOUX FALLS SD
1100 PM CDT TUE AUG 04 2015

NOTE: "FAIR" INDICATES FEW OR NO CLOUDS BELOW 12,000 FEET WITH NO
SIGNIFICANT WEATHER AND OR OBSTRUCTIONS TO VISIBILITY.


SDZ038>040-050-052>070-050500-
SOUTHEAST SOUTH DAKOTA

CITY           SKY/WX    TMP DP  RH WIND       PRES   REMARKS
BROOKINGS      PTCLDY    66  57  72 SE8       30.05R
CHAMBERLAIN    PTCLDY    67  64  88 E5        30.00R
HURON          MOCLDY    69  61  75 SE8       29.99R
MADISON        FAIR      64  64 100 SE6       30.04R
MITCHELL       MOCLDY    67  64  90 SE7       30.00R
SIOUX FALLS    MOCLDY    68  61  78 E8        30.02R
WINNER         FAIR      70  64  81 SE7       30.00R
YANKTON        CLOUDY    70  64  83 E5        29.99R
$$

MNZ071-072-080-081-089-090-097-098-050500-
SOUTHWEST MINNESOTA

CITY           SKY/WX    TMP DP  RH WIND       PRES   REMARKS
FAIRMONT       PTCLDY    63  54  72 CALM      30.04R
JACKSON        PTCLDY    63  55  77 SE5       30.05R
LUVERNE        MOCLDY    64  59  82 CALM      30.03S
MARSHALL       PTCLDY    63  55  77 CALM      30.05R
MONTEVIDEO     PTCLDY    63  55  77 S3        30.04S
PIPESTONE      PTCLDY    64  57  77 SE3       30.05R
REDWOOD FALLS  PTCLDY    68  55  63 CALM      30.03R
TRACY          PTCLDY    66  57  72 S5        30.04S
WINDOM         PTCLDY    61  55  82 CALM      30.05R
WORTHINGTON    PTCLDY    61  55  82 E3        30.05R
$$

IAZ001>003-012>014-020>022-031-032-NEZ013-014-SDZ071-050500-
NORTHWEST IOWA

CITY           SKY/WX    TMP DP  RH WIND       PRES   REMARKS
CHEROKEE       MOCLDY    66  64  93 E3        30.02R
DENISON        CLOUDY    70  61  73 E15       29.98F
ESTHERVILLE    PTCLDY    59  56  89 E5        30.03S
LE MARS        CLOUDY    72  64  78 E7        30.01S
ORANGE CITY    CLOUDY    66  63  88 E3        30.02R
SHELDON        MOCLDY    64  61  88 E6        30.02R
SIOUX CITY     LGT RAIN  68  59  73 SE15      30.00R
SPENCER        MOCLDY    64  58  80 E5        30.04R
STORM LAKE     MOCLDY    66  64  94 E6        30.03R
$$

ABBREVIATIONS USED IN REMARKS
   TC - TEMPERATURE IN CELSIUS
  WCI - WIND CHILL INDEX
   HX - HEAT INDEX
  VSB - VISIBILITY



USA.gov is the U.S. government's official web portal to all federal, state and local government web resources and services.